| time (UTC) | temp F | wind direction | speed knots | gust knots | rain 1hr in | rain 24hr in | rain mn in | humidity % | barometer mb |
| 20260505025045 | 57 | 49 | 4.3 | 8.7 | 0.00 | 0.00 | 0.00 | 41 | 1008.0 |
| 20260505024556 | 57 | 340 | 4.3 | 8.7 | 0.00 | 0.00 | 0.00 | 41 | 1007.8 |
| 20260505024042 | 57 | 39 | 3.5 | 10.4 | 0.00 | 0.00 | 0.00 | 40 | 1007.5 |
| 20260505023544 | 58 | 263 | 4.3 | 10.4 | 0.00 | 0.00 | 0.00 | 40 | 1007.5 |
| 20260505023056 | 58 | 36 | 3.5 | 7.8 | 0.00 | 0.00 | 0.00 | 40 | 1007.2 |
| 20260505022542 | 58 | 42 | 3.5 | 10.4 | 0.00 | 0.00 | 0.00 | 40 | 1007.2 |
| 20260505022042 | 58 | 53 | 2.6 | 10.4 | 0.00 | 0.00 | 0.00 | 41 | 1007.3 |
| 20260505021557 | 58 | 29 | 3.5 | 9.6 | 0.00 | 0.00 | 0.00 | 41 | 1006.7 |
| 20260505021042 | 58 | 43 | 2.6 | 9.6 | 0.00 | 0.00 | 0.00 | 41 | 1006.6 |
| 20260505020542 | 58 | 39 | 3.5 | 9.6 | 0.00 | 0.00 | 0.00 | 41 | 1006.9 |
| 20260505015543 | 59 | 88 | 3.5 | 10.4 | 0.00 | 0.00 | 0.00 | 40 | 1006.9 |
| 20260505015045 | 60 | 333 | 3.5 | 7.8 | 0.00 | 0.00 | 0.00 | 39 | 1006.4 |
| 20260505014554 | 60 | 9 | 3.5 | 8.7 | 0.00 | 0.00 | 0.00 | 38 | 1006.4 |
| 20260505014041 | 61 | 37 | 3.5 | 12.2 | 0.00 | 0.00 | 0.00 | 38 | 1006.2 |
| 20260505013543 | 61 | 49 | 3.5 | 12.2 | 0.00 | 0.00 | 0.00 | 37 | 1006.0 |
| 20260505013057 | 61 | 32 | 4.3 | 11.3 | 0.00 | 0.00 | 0.00 | 37 | 1006.1 |
| 20260505012543 | 62 | 315 | 3.5 | 8.7 | 0.00 | 0.00 | 0.00 | 36 | 1005.9 |
| 20260505012041 | 62 | 343 | 2.6 | 13.0 | 0.00 | 0.00 | 0.00 | 36 | 1006.0 |
| 20260505011553 | 62 | 55 | 3.5 | 13.0 | 0.00 | 0.00 | 0.00 | 35 | 1005.9 |
| 20260505011042 | 63 | 49 | 6.1 | 13.0 | 0.00 | 0.00 | 0.00 | 34 | 1005.8 |
| 20260505010542 | 64 | 302 | 4.3 | 8.7 | 0.00 | 0.00 | 0.00 | 33 | 1005.7 |
| 20260505010112 | 64 | 5 | 3.5 | 7.8 | 0.00 | 0.00 | 0.00 | 33 | 1005.5 |
| 20260505005541 | 65 | 310 | 2.6 | 7.8 | 0.00 | 0.00 | 0.00 | 33 | 1005.3 |
| 20260505005042 | 65 | 36 | 3.5 | 7.8 | 0.00 | 0.00 | 0.00 | 33 | 1005.2 |
| 20260505004553 | 65 | 349 | 3.5 | 7.8 | 0.00 | 0.00 | 0.00 | 32 | 1005.2 |
| 20260505004041 | 66 | 269 | 3.5 | 7.8 | 0.00 | 0.00 | 0.00 | 32 | 1005.1 |
| 20260505003541 | 66 | 17 | 2.6 | 14.8 | 0.00 | 0.00 | 0.00 | 32 | 1004.8 |
| 20260505003057 | 67 | 33 | 4.3 | 14.8 | 0.00 | 0.00 | 0.00 | 31 | 1004.8 |
| 20260505002541 | 68 | 39 | 4.3 | 9.6 | 0.00 | 0.00 | 0.00 | 31 | 1004.9 |
| 20260505002044 | 69 | 44 | 3.5 | 9.6 | 0.00 | 0.00 | 0.00 | 32 | 1004.6 |
| 20260505001600 | 69 | 51 | 2.6 | 9.6 | 0.00 | 0.00 | 0.00 | 32 | 1004.6 |
| 20260505001044 | 69 | 18 | 3.5 | 8.7 | 0.00 | 0.00 | 0.00 | 31 | 1004.6 |
| 20260505000546 | 69 | 6 | 2.6 | 10.4 | 0.00 | 0.00 | 0.00 | 31 | 1004.6 |
| 20260505000057 | 69 | 27 | 2.6 | 10.4 | 0.00 | 0.00 | 0.00 | 31 | 1004.7 |
| 20260504235545 | 69 | 325 | 3.5 | 12.2 | 0.00 | 0.00 | 0.00 | 30 | 1004.7 |
| 20260504235042 | 70 | 37 | 5.2 | 12.2 | 0.00 | 0.00 | 0.00 | 30 | 1004.5 |
| 20260504234557 | 71 | 53 | 4.3 | 9.6 | 0.00 | 0.00 | 0.00 | 29 | 1004.5 |
| 20260504234045 | 71 | 66 | 3.5 | 10.4 | 0.00 | 0.00 | 0.00 | 29 | 1004.4 |
| 20260504233542 | 71 | 4 | 3.5 | 10.4 | 0.00 | 0.00 | 0.00 | 30 | 1004.4 |
| 20260504233107 | 71 | 42 | 1.7 | 11.3 | 0.00 | 0.00 | 0.00 | 30 | 1004.4 |
| 20260504232541 | 72 | 44 | 4.3 | 11.3 | 0.00 | 0.00 | 0.00 | 29 | 1004.2 |
| 20260504232043 | 72 | 37 | 4.3 | 9.6 | 0.00 | 0.00 | 0.00 | 28 | 1004.1 |
| 20260504231552 | 73 | 47 | 1.7 | 7.8 | 0.00 | 0.00 | 0.00 | 28 | 1004.0 |
| 20260504231041 | 73 | 49 | 3.5 | 7.8 | 0.00 | 0.00 | 0.00 | 28 | 1004.0 |
| 20260504230541 | 74 | 38 | 2.6 | 7.8 | 0.00 | 0.00 | 0.00 | 28 | 1003.8 |
| 20260504230057 | 74 | 53 | 2.6 | 10.4 | 0.00 | 0.00 | 0.00 | 28 | 1003.6 |
| 20260504225545 | 74 | 39 | 3.5 | 10.4 | 0.00 | 0.00 | 0.00 | 27 | 1003.5 |
| 20260504225042 | 75 | 59 | 3.5 | 7.0 | 0.00 | 0.00 | 0.00 | 29 | 1003.4 |
| 20260504224554 | 75 | 37 | 1.7 | 7.8 | 0.00 | 0.00 | 0.00 | 30 | 1003.2 |
| 20260504224043 | 75 | 35 | 3.5 | 8.7 | 0.00 | 0.00 | 0.00 | 28 | 1003.1 |
| 20260504223542 | 76 | 72 | 3.5 | 8.7 | 0.00 | 0.00 | 0.00 | 30 | 1003.1 |
| 20260504223058 | 76 | 48 | 2.6 | 7.8 | 0.00 | 0.00 | 0.00 | 28 | 1002.9 |
| 20260504222541 | 76 | 240 | 4.3 | 7.8 | 0.00 | 0.00 | 0.00 | 27 | 1002.7 |
| 20260504222041 | 76 | 12 | 3.5 | 8.7 | 0.00 | 0.00 | 0.00 | 27 | 1002.6 |
| 20260504221550 | 76 | 51 | 4.3 | 8.7 | 0.00 | 0.00 | 0.00 | 28 | 1002.5 |
| 20260504221042 | 77 | 15 | 3.5 | 6.1 | 0.00 | 0.00 | 0.00 | 28 | 1002.3 |
| 20260504220542 | 77 | 6 | 3.5 | 7.0 | 0.00 | 0.00 | 0.00 | 29 | 1002.3 |
| 20260504220058 | 77 | 30 | 2.6 | 7.0 | 0.00 | 0.00 | 0.00 | 29 | 1002.2 |
| 20260504215543 | 77 | 123 | 3.5 | 7.0 | 0.00 | 0.00 | 0.00 | 31 | 1002.2 |
| 20260504215042 | 78 | 338 | 2.6 | 7.0 | 0.00 | 0.00 | 0.00 | 30 | 1002.2 |
| 20260504214556 | 78 | 37 | 1.7 | 10.4 | 0.00 | 0.00 | 0.00 | 29 | 1002.2 |
| 20260504214045 | 78 | 43 | 2.6 | 10.4 | 0.00 | 0.00 | 0.00 | 29 | 1002.2 |
| 20260504213545 | 79 | 31 | 3.5 | 10.4 | 0.00 | 0.00 | 0.00 | 29 | 1002.2 |
| 20260504213047 | 79 | 284 | 0.9 | 7.8 | 0.00 | 0.00 | 0.00 | 33 | 1002.2 |
| 20260504212544 | 78 | 48 | 2.6 | 7.8 | 0.00 | 0.00 | 0.00 | 31 | 1002.0 |
| 20260504212048 | 78 | 26 | 2.6 | 9.6 | 0.00 | 0.00 | 0.00 | 30 | 1002.1 |
| 20260504211551 | 79 | 79 | 2.6 | 9.6 | 0.00 | 0.00 | 0.00 | 32 | 1002.0 |
| 20260504211046 | 79 | 352 | 2.6 | 5.2 | 0.00 | 0.00 | 0.00 | 31 | 1001.9 |
| 20260504210545 | 79 | 354 | 1.7 | 5.2 | 0.00 | 0.00 | 0.00 | 32 | 1002.1 |
| 20260504210054 | 79 | 16 | 1.7 | 5.2 | 0.00 | 0.00 | 0.00 | 32 | 1002.0 |
| 20260504205540 | 79 | 35 | 2.6 | 6.1 | 0.00 | 0.00 | 0.00 | 32 | 1001.9 |
| 20260504205042 | 79 | 30 | 2.6 | 6.1 | 0.00 | 0.00 | 0.00 | 34 | 1001.9 |
| 20260504204556 | 80 | 242 | 0.9 | 7.8 | 0.00 | 0.00 | 0.00 | 31 | 1001.8 |
| 20260504204043 | 80 | 287 | 0.9 | 7.8 | 0.00 | 0.00 | 0.00 | 32 | 1001.9 |
| 20260504203541 | 80 | 328 | 0.9 | 6.1 | 0.00 | 0.00 | 0.00 | 31 | 1001.7 |
| 20260504203103 | 80 | 297 | 2.6 | 12.2 | 0.00 | 0.00 | 0.00 | 31 | 1001.8 |
| 20260504202543 | 80 | 278 | 2.6 | 12.2 | 0.00 | 0.00 | 0.00 | 31 | 1001.8 |
| 20260504202042 | 80 | 18 | 3.5 | 12.2 | 0.00 | 0.00 | 0.00 | 30 | 1001.8 |
| 20260504201555 | 80 | 278 | 3.5 | 12.2 | 0.00 | 0.00 | 0.00 | 30 | 1001.8 |
| 20260504201041 | 81 | 226 | 4.3 | 12.2 | 0.00 | 0.00 | 0.00 | 30 | 1001.8 |
| 20260504200542 | 81 | 6 | 1.7 | 7.0 | 0.00 | 0.00 | 0.00 | 31 | 1001.8 |
| 20260504200046 | 81 | 344 | 1.7 | 8.7 | 0.00 | 0.00 | 0.00 | 30 | 1001.6 |
| 20260504195541 | 81 | 250 | 1.7 | 8.7 | 0.00 | 0.00 | 0.00 | 29 | 1001.7 |
| 20260504195042 | 82 | 267 | 1.7 | 7.8 | 0.00 | 0.00 | 0.00 | 30 | 1001.6 |
| 20260504194546 | 82 | 278 | 2.6 | 7.8 | 0.00 | 0.00 | 0.00 | 30 | 1001.7 |
| 20260504194042 | 81 | 47 | 1.7 | 10.4 | 0.00 | 0.00 | 0.00 | 30 | 1001.6 |
| 20260504193542 | 82 | 56 | 3.5 | 10.4 | 0.00 | 0.00 | 0.00 | 29 | 1001.6 |
| 20260504193051 | 82 | 61 | 1.7 | 7.0 | 0.00 | 0.00 | 0.00 | 30 | 1001.5 |
| 20260504192545 | 82 | 283 | 2.6 | 7.8 | 0.00 | 0.00 | 0.00 | 27 | 1001.4 |
| 20260504192041 | 82 | 287 | 3.5 | 7.8 | 0.00 | 0.00 | 0.00 | 27 | 1001.4 |
| 20260504191550 | 83 | 22 | 2.6 | 7.8 | 0.00 | 0.00 | 0.00 | 27 | 1001.3 |
| 20260504191042 | 83 | 24 | 1.7 | 8.7 | 0.00 | 0.00 | 0.00 | 26 | 1001.4 |
| 20260504190543 | 82 | 0 | 0.9 | 8.7 | 0.00 | 0.00 | 0.00 | 28 | 1001.4 |
| 20260504190112 | 82 | 39 | 2.6 | 8.7 | 0.00 | 0.00 | 0.00 | 28 | 1001.3 |
| 20260504185541 | 83 | 210 | 1.7 | 5.2 | 0.00 | 0.00 | 0.00 | 27 | 1001.3 |
| 20260504185040 | 82 | 278 | 0.9 | 9.6 | 0.00 | 0.00 | 0.00 | 28 | 1001.1 |
| 20260504184550 | 82 | 243 | 1.7 | 11.3 | 0.00 | 0.00 | 0.00 | 28 | 1001.2 |
| 20260504184043 | 81 | 266 | 1.7 | 11.3 | 0.00 | 0.00 | 0.00 | 28 | 1001.3 |
| 20260504183542 | 81 | 297 | 2.6 | 8.7 | 0.00 | 0.00 | 0.00 | 26 | 1001.5 |
| 20260504183050 | 81 | 275 | 2.6 | 8.7 | 0.00 | 0.00 | 0.00 | 28 | 1001.3 |
| 20260504182544 | 81 | 277 | 2.6 | 7.0 | 0.00 | 0.00 | 0.00 | 28 | 1001.5 |
| 20260504182045 | 81 | 261 | 2.6 | 9.6 | 0.00 | 0.00 | 0.00 | 29 | 1001.5 |
| 20260504181555 | 81 | 272 | 3.5 | 9.6 | 0.00 | 0.00 | 0.00 | 26 | 1001.6 |
| 20260504181045 | 81 | 356 | 0.9 | 7.0 | 0.00 | 0.00 | 0.00 | 29 | 1001.4 |
| 20260504180549 | 81 | 41 | 2.6 | 7.0 | 0.00 | 0.00 | 0.00 | 27 | 1001.6 |
| 20260504180051 | 81 | 319 | 1.7 | 8.7 | 0.00 | 0.00 | 0.00 | 26 | 1001.6 |
| 20260504175545 | 81 | 44 | 1.7 | 8.7 | 0.00 | 0.00 | 0.00 | 29 | 1001.7 |
| 20260504175045 | 80 | 285 | 1.7 | 6.1 | 0.00 | 0.00 | 0.00 | 30 | 1001.8 |
| 20260504174558 | 80 | 0 | 0.9 | 7.8 | 0.00 | 0.00 | 0.00 | 31 | 1001.7 |
| 20260504174045 | 79 | 210 | 2.6 | 7.8 | 0.00 | 0.00 | 0.00 | 30 | 1001.8 |
| 20260504173544 | 79 | 335 | 2.6 | 7.0 | 0.00 | 0.00 | 0.00 | 31 | 1001.8 |
| 20260504173052 | 79 | 302 | 0.9 | 5.2 | 0.00 | 0.00 | 0.00 | 31 | 1001.9 |
| 20260504172544 | 79 | 276 | 1.7 | 5.2 | 0.00 | 0.00 | 0.00 | 31 | 1001.9 |
| 20260504172045 | 79 | 329 | 0.9 | 7.8 | 0.00 | 0.00 | 0.00 | 33 | 1001.9 |
| 20260504171549 | 78 | 262 | 0.9 | 8.7 | 0.00 | 0.00 | 0.00 | 34 | 1002.0 |
| 20260504171043 | 78 | 269 | 2.6 | 8.7 | 0.00 | 0.00 | 0.00 | 35 | 1002.0 |
| 20260504170541 | 78 | 279 | 1.7 | 6.1 | 0.00 | 0.00 | 0.00 | 34 | 1002.0 |
| 20260504151045 | 68 | 0 | 0.0 | 1.7 | 0.00 | 0.00 | 0.00 | 43 | 1002.1 |
| 20260504150542 | 68 | 269 | 0.0 | 1.7 | 0.00 | 0.00 | 0.00 | 45 | 1002.1 |
| 20260504141042 | 63 | 0 | 0.9 | 7.8 | 0.00 | 0.00 | 0.00 | 51 | 1002.5 |
| 20260504140542 | 62 | 262 | 0.9 | 6.1 | 0.00 | 0.00 | 0.00 | 52 | 1002.6 |
| 20260504130542 | 52 | 0 | 0.0 | 0.0 | 0.00 | 0.00 | 0.00 | 78 | 1002.1 |
| 20260504110544 | 48 | 0 | 0.0 | 0.0 | 0.00 | 0.00 | 0.00 | 80 | 1001.9 |
| 20260504100543 | 48 | 0 | 0.0 | 0.0 | 0.00 | 0.00 | 0.00 | 79 | 1002.2 |
| 20260504081600 | 49 | 0 | 0.0 | 0.0 | 0.00 | 0.00 | 0.00 | 74 | 1003.7 |
| 20260504081044 | 50 | 0 | 0.0 | 0.0 | 0.00 | 0.00 | 0.00 | 73 | 1003.8 |
| 20260504080545 | 50 | 0 | 0.0 | 0.0 | 0.00 | 0.00 | 0.00 | 72 | 1003.9 |
| 20260504060106 | 55 | 0 | 0.0 | 0.0 | 0.00 | 0.00 | 0.00 | 61 | 1005.9 |
| 20260504050548 | 56 | 0 | 0.0 | 0.0 | 0.00 | 0.00 | 0.00 | 61 | 1006.5 |
| 20260504050103 | 56 | 0 | 0.0 | 0.0 | 0.00 | 0.00 | 0.00 | 61 | 1006.6 |
| 20260504045547 | 56 | 0 | 0.0 | 0.0 | 0.00 | 0.00 | 0.00 | 60 | 1006.5 |
| 20260504045045 | 56 | 0 | 0.0 | 0.0 | 0.00 | 0.00 | 0.00 | 60 | 1006.6 |
| 20260504044553 | 56 | 0 | 0.0 | 0.0 | 0.00 | 0.00 | 0.00 | 61 | 1006.7 |
| 20260504044044 | 57 | 0 | 0.0 | 0.0 | 0.00 | 0.00 | 0.00 | 61 | 1006.8 |
| 20260504043544 | 57 | 0 | 0.0 | 0.0 | 0.00 | 0.00 | 0.00 | 61 | 1006.8 |
| 20260504043101 | 57 | 0 | 0.0 | 0.0 | 0.00 | 0.00 | 0.00 | 63 | 1006.9 |
| 20260504042542 | 58 | 0 | 0.0 | 0.0 | 0.00 | 0.00 | 0.00 | 61 | 1006.9 |
| 20260504042045 | 58 | 0 | 0.0 | 0.0 | 0.00 | 0.00 | 0.00 | 60 | 1006.9 |
| 20260504041552 | 58 | 0 | 0.0 | 0.0 | 0.00 | 0.00 | 0.00 | 61 | 1007.0 |
| 20260504041046 | 58 | 0 | 0.0 | 0.0 | 0.00 | 0.00 | 0.00 | 60 | 1007.0 |
| 20260504040547 | 59 | 0 | 0.0 | 0.0 | 0.00 | 0.00 | 0.00 | 59 | 1007.0 |
| 20260504040059 | 59 | 0 | 0.0 | 0.0 | 0.00 | 0.00 | 0.00 | 57 | 1007.1 |
| 20260504035545 | 59 | 0 | 0.0 | 0.0 | 0.00 | 0.00 | 0.00 | 57 | 1007.0 |
| 20260504035044 | 59 | 0 | 0.0 | 0.0 | 0.00 | 0.00 | 0.00 | 57 | 1007.1 |
| 20260504034557 | 59 | 0 | 0.0 | 0.0 | 0.00 | 0.00 | 0.00 | 57 | 1007.2 |
| 20260504034041 | 59 | 0 | 0.0 | 0.0 | 0.00 | 0.00 | 0.00 | 58 | 1007.2 |
| 20260504033545 | 60 | 0 | 0.0 | 0.0 | 0.00 | 0.00 | 0.00 | 56 | 1007.2 |
| 20260504033057 | 60 | 0 | 0.0 | 0.0 | 0.00 | 0.00 | 0.00 | 55 | 1007.3 |
| 20260504032545 | 60 | 0 | 0.0 | 0.0 | 0.00 | 0.00 | 0.00 | 53 | 1007.2 |
| 20260504032045 | 61 | 0 | 0.0 | 0.0 | 0.00 | 0.00 | 0.00 | 51 | 1007.4 |
| 20260504031558 | 61 | 0 | 0.0 | 0.0 | 0.00 | 0.00 | 0.00 | 51 | 1007.3 |
| 20260504031044 | 61 | 0 | 0.0 | 0.0 | 0.00 | 0.00 | 0.00 | 51 | 1007.4 |
| 20260504030544 | 61 | 0 | 0.0 | 0.0 | 0.00 | 0.00 | 0.00 | 51 | 1007.4 |
| 20260504030054 | 62 | 0 | 0.0 | 0.0 | 0.00 | 0.00 | 0.00 | 50 | 1007.4 |
| 20260504025542 | 62 | 0 | 0.0 | 0.0 | 0.00 | 0.00 | 0.00 | 48 | 1007.4 |